Time,TemperatureF,DewpointF,PressureIn,WindDirection,WindDirectionDegrees,WindSpeedMPH,WindSpeedGustMPH,Humidity,HourlyPrecipIn,Conditions,Clouds,dailyrainin,SoftwareType,DateUTC
2013-03-05 00:00:00,30.6,16.3,30.01,East,90,0.0,0.0,55,0.00,,,0.00,WUHU216HW,2013-03-05 05:00:00,
2013-03-05 00:01:00,30.6,16.3,30.01,East,90,0.0,0.0,55,0.00,,,0.00,WUHU216HW,2013-03-05 05:01:00,
2013-03-05 00:03:00,30.6,16.7,30.02,East,90,0.0,0.0,56,0.00,,,0.00,WUHU216HW,2013-03-05 05:03:00,
2013-03-05 00:08:00,30.8,16.8,30.02,NE,45,0.0,0.2,56,0.00,,,0.00,WUHU216HW,2013-03-05 05:08:00,
2013-03-05 00:13:00,30.8,16.8,30.02,NE,45,0.0,0.2,56,0.00,,,0.00,WUHU216HW,2013-03-05 05:13:00,
2013-03-05 00:18:00,30.8,16.8,30.02,SE,135,0.2,0.7,56,0.00,,,0.00,WUHU216HW,2013-03-05 05:18:00,
2013-03-05 00:23:00,31.0,17.5,30.02,SE,135,0.4,0.9,57,0.00,,,0.00,WUHU216HW,2013-03-05 05:23:00,
2013-03-05 00:28:00,31.5,17.6,30.02,ESE,113,0.0,0.9,56,0.00,,,0.00,WUHU216HW,2013-03-05 05:28:00,
2013-03-05 00:34:00,31.7,17.7,30.02,SE,135,0.0,0.7,56,0.00,,,0.00,WUHU216HW,2013-03-05 05:34:00,
2013-03-05 00:39:00,32.0,18.1,30.02,NE,45,0.0,1.8,56,0.00,,,0.00,WUHU216HW,2013-03-05 05:39:00,
2013-03-05 00:44:00,32.4,18.4,30.02,ENE,68,0.2,1.8,56,0.00,,,0.00,WUHU216HW,2013-03-05 05:44:00,
2013-03-05 00:49:00,32.6,18.5,30.02,SSE,158,2.7,2.7,56,0.00,,,0.00,WUHU216HW,2013-03-05 05:49:00,
2013-03-05 00:54:00,33.1,19.1,30.02,SE,135,0.0,2.7,56,0.00,,,0.00,WUHU216HW,2013-03-05 05:54:00,
2013-03-05 00:59:00,33.5,19.4,30.02,SSE,158,0.4,0.9,56,0.00,,,0.00,WUHU216HW,2013-03-05 05:59:00,
2013-03-05 01:04:00,33.5,19.4,30.02,ESE,113,0.0,0.9,56,0.00,,,0.00,WUHU216HW,2013-03-05 06:04:00,
2013-03-05 01:09:00,33.3,18.8,30.02,ESE,113,0.0,0.4,55,0.00,,,0.00,WUHU216HW,2013-03-05 06:09:00,
2013-03-05 01:14:00,32.9,18.5,30.03,ESE,113,0.2,0.4,55,0.00,,,0.00,WUHU216HW,2013-03-05 06:14:00,
2013-03-05 01:19:00,32.8,18.3,30.03,ESE,113,0.0,0.4,55,0.00,,,0.00,WUHU216HW,2013-03-05 06:19:00,
2013-03-05 01:24:00,32.4,18.0,30.02,ESE,113,0.0,0.0,55,0.00,,,0.00,WUHU216HW,2013-03-05 06:24:00,
2013-03-05 01:30:00,32.2,17.8,30.02,ESE,113,0.0,0.0,55,0.00,,,0.00,WUHU216HW,2013-03-05 06:30:00,
2013-03-05 01:35:00,32.0,18.1,30.02,SE,135,0.0,0.7,56,0.00,,,0.00,WUHU216HW,2013-03-05 06:35:00,
2013-03-05 01:40:00,32.0,17.6,30.02,SE,135,0.0,0.7,55,0.00,,,0.00,WUHU216HW,2013-03-05 06:40:00,
2013-03-05 01:45:00,32.0,17.6,30.02,SW,225,0.4,0.4,55,0.00,,,0.00,WUHU216HW,2013-03-05 06:45:00,
2013-03-05 01:50:00,32.4,18.4,30.02,SW,225,0.0,0.4,56,0.00,,,0.00,WUHU216HW,2013-03-05 06:50:00,
2013-03-05 01:55:00,32.4,18.4,30.02,SW,225,0.0,0.4,56,0.00,,,0.00,WUHU216HW,2013-03-05 06:55:00,
2013-03-05 02:00:00,31.9,17.5,30.02,SW,225,0.0,0.0,55,0.00,,,0.00,WUHU216HW,2013-03-05 07:00:00,
2013-03-05 02:05:00,31.5,17.6,30.02,NE,45,0.0,0.0,56,0.00,,,0.00,WUHU216HW,2013-03-05 07:05:00,
2013-03-05 02:10:00,31.3,17.4,30.02,NNE,23,0.0,0.0,56,0.00,,,0.00,WUHU216HW,2013-03-05 07:10:00,
2013-03-05 02:16:00,31.3,17.8,30.02,East,90,0.0,0.4,57,0.00,,,0.00,WUHU216HW,2013-03-05 07:16:00,
2013-03-05 02:21:00,31.3,17.8,30.02,East,90,0.0,0.4,57,0.00,,,0.00,WUHU216HW,2013-03-05 07:21:00,
2013-03-05 02:26:00,31.3,17.8,30.02,ESE,113,0.0,0.0,57,0.00,,,0.00,WUHU216HW,2013-03-05 07:26:00,
2013-03-05 02:31:00,31.1,17.7,30.02,ESE,113,0.0,0.0,57,0.00,,,0.00,WUHU216HW,2013-03-05 07:31:00,
2013-03-05 02:36:00,31.1,17.7,30.02,ESE,113,0.0,0.0,57,0.00,,,0.00,WUHU216HW,2013-03-05 07:36:00,
2013-03-05 02:41:00,31.1,17.7,30.02,ESE,113,0.4,0.4,57,0.00,,,0.00,WUHU216HW,2013-03-05 07:41:00,
2013-03-05 02:46:00,31.1,17.7,30.02,ESE,113,0.2,0.4,57,0.00,,,0.00,WUHU216HW,2013-03-05 07:46:00,
2013-03-05 02:51:00,31.3,17.8,30.02,ESE,113,0.0,0.4,57,0.00,,,0.00,WUHU216HW,2013-03-05 07:51:00,
2013-03-05 02:57:00,31.5,18.5,30.02,SE,135,0.2,0.4,58,0.00,,,0.00,WUHU216HW,2013-03-05 07:57:00,
2013-03-05 03:02:00,31.9,18.4,30.02,SW,225,0.9,0.9,57,0.00,,,0.00,WUHU216HW,2013-03-05 08:02:00,
2013-03-05 03:07:00,32.2,18.6,30.02,SE,135,0.0,0.9,57,0.00,,,0.00,WUHU216HW,2013-03-05 08:07:00,
2013-03-05 03:12:00,32.2,18.6,30.02,SE,135,0.0,0.0,57,0.00,,,0.00,WUHU216HW,2013-03-05 08:12:00,
2013-03-05 03:17:00,32.2,18.6,30.03,SE,135,0.0,0.2,57,0.00,,,0.00,WUHU216HW,2013-03-05 08:17:00,
2013-03-05 03:22:00,32.4,18.8,30.02,ESE,113,0.0,0.2,57,0.00,,,0.00,WUHU216HW,2013-03-05 08:22:00,
2013-03-05 03:27:00,32.6,19.0,30.02,ESE,113,0.4,0.4,57,0.00,,,0.00,WUHU216HW,2013-03-05 08:27:00,
2013-03-05 03:32:00,32.8,19.2,30.03,SE,135,0.4,0.4,57,0.00,,,0.00,WUHU216HW,2013-03-05 08:32:00,
2013-03-05 03:37:00,32.8,19.2,30.03,ESE,113,0.2,1.1,57,0.00,,,0.00,WUHU216HW,2013-03-05 08:37:00,
2013-03-05 03:42:00,32.8,19.2,30.03,ESE,113,0.0,1.1,57,0.00,,,0.00,WUHU216HW,2013-03-05 08:42:00,
2013-03-05 03:47:00,32.8,19.2,30.03,ESE,113,0.0,0.0,57,0.00,,,0.00,WUHU216HW,2013-03-05 08:47:00,
2013-03-05 04:00:00,33.1,19.1,30.03,SE,135,0.2,0.2,56,0.00,,,0.00,WUHU216HW,2013-03-05 09:00:00,
2013-03-05 04:05:00,33.1,19.1,30.04,SE,135,0.0,0.7,56,0.00,,,0.00,WUHU216HW,2013-03-05 09:05:00,
2013-03-05 04:10:00,33.1,19.1,30.04,SE,135,0.4,0.7,56,0.00,,,0.00,WUHU216HW,2013-03-05 09:10:00,
2013-03-05 04:15:00,33.1,19.1,30.04,SE,135,0.0,1.1,56,0.00,,,0.00,WUHU216HW,2013-03-05 09:15:00,
2013-03-05 04:20:00,32.9,18.9,30.05,ESE,113,0.0,1.1,56,0.00,,,0.00,WUHU216HW,2013-03-05 09:20:00,
2013-03-05 04:25:00,32.8,18.7,30.05,ESE,113,0.2,0.4,56,0.00,,,0.00,WUHU216HW,2013-03-05 09:25:00,
2013-03-05 04:30:00,32.8,18.7,30.05,ESE,113,0.0,1.1,56,0.00,,,0.00,WUHU216HW,2013-03-05 09:30:00,
2013-03-05 04:35:00,32.8,18.7,30.05,SE,135,0.0,1.1,56,0.00,,,0.00,WUHU216HW,2013-03-05 09:35:00,
2013-03-05 04:40:00,32.8,18.7,30.05,SE,135,0.0,1.1,56,0.00,,,0.00,WUHU216HW,2013-03-05 09:40:00,
2013-03-05 04:45:00,32.6,18.5,30.05,SE,135,0.0,0.9,56,0.00,,,0.00,WUHU216HW,2013-03-05 09:45:00,
2013-03-05 04:50:00,32.4,18.4,30.05,SE,135,0.0,0.9,56,0.00,,,0.00,WUHU216HW,2013-03-05 09:50:00,
2013-03-05 04:56:00,32.4,18.4,30.05,SE,135,0.0,0.0,56,0.00,,,0.00,WUHU216HW,2013-03-05 09:56:00,
2013-03-05 05:01:00,32.0,18.6,30.05,SE,135,0.2,0.2,57,0.00,,,0.00,WUHU216HW,2013-03-05 10:01:00,
2013-03-05 05:06:00,31.9,18.4,30.05,SSW,203,0.4,0.4,57,0.00,,,0.00,WUHU216HW,2013-03-05 10:06:00,
2013-03-05 05:11:00,31.9,18.7,30.05,SSW,203,0.0,0.4,58,0.00,,,0.00,WUHU216HW,2013-03-05 10:11:00,
2013-03-05 05:16:00,31.9,18.7,30.05,WSW,248,0.0,0.4,58,0.00,,,0.00,WUHU216HW,2013-03-05 10:16:00,
2013-03-05 05:21:00,31.5,18.5,30.04,WSW,248,0.2,0.2,58,0.00,,,0.00,WUHU216HW,2013-03-05 10:21:00,
2013-03-05 05:26:00,31.3,18.3,30.05,NNE,23,0.0,0.2,58,0.00,,,0.00,WUHU216HW,2013-03-05 10:26:00,
2013-03-05 05:31:00,31.0,17.9,30.05,NNE,23,0.0,0.0,58,0.00,,,0.00,WUHU216HW,2013-03-05 10:31:00,
2013-03-05 05:36:00,30.6,17.9,30.05,NNE,23,0.0,0.0,59,0.00,,,0.00,WUHU216HW,2013-03-05 10:36:00,
2013-03-05 05:41:00,30.6,17.9,30.04,ENE,68,0.0,0.0,59,0.00,,,0.00,WUHU216HW,2013-03-05 10:41:00,
2013-03-05 05:47:00,31.0,18.3,30.04,East,90,0.0,0.4,59,0.00,,,0.00,WUHU216HW,2013-03-05 10:47:00,
2013-03-05 05:52:00,31.1,18.5,30.05,East,90,0.0,0.4,59,0.00,,,0.00,WUHU216HW,2013-03-05 10:52:00,
2013-03-05 05:57:00,31.0,18.7,30.05,East,90,0.0,0.0,60,0.00,,,0.00,WUHU216HW,2013-03-05 10:57:00,
2013-03-05 06:02:00,31.0,18.7,30.04,East,90,0.0,0.0,60,0.00,,,0.00,WUHU216HW,2013-03-05 11:02:00,
2013-03-05 06:07:00,30.8,18.5,30.04,East,90,0.0,0.0,60,0.00,,,0.00,WUHU216HW,2013-03-05 11:07:00,
2013-03-05 06:12:00,30.6,18.4,30.05,East,90,0.0,0.0,60,0.00,,,0.00,WUHU216HW,2013-03-05 11:12:00,
2013-03-05 06:17:00,30.4,18.5,30.05,East,90,0.0,0.0,61,0.00,,,0.00,WUHU216HW,2013-03-05 11:17:00,
2013-03-05 06:22:00,30.2,18.4,30.05,NNE,23,1.1,1.1,61,0.00,,,0.00,WUHU216HW,2013-03-05 11:22:00,
2013-03-05 06:27:00,30.2,18.4,30.05,NNE,23,0.0,1.1,61,0.00,,,0.00,WUHU216HW,2013-03-05 11:27:00,
2013-03-05 06:32:00,30.4,18.9,30.05,NNE,23,0.0,0.7,62,0.00,,,0.00,WUHU216HW,2013-03-05 11:32:00,
2013-03-05 06:37:00,30.6,19.1,30.05,NNE,23,0.0,0.4,62,0.00,,,0.00,WUHU216HW,2013-03-05 11:37:00,
2013-03-05 06:42:00,30.6,19.1,30.05,NNE,23,0.0,0.4,62,0.00,,,0.00,WUHU216HW,2013-03-05 11:42:00,
2013-03-05 06:47:00,30.6,19.1,30.05,NNE,23,0.0,0.2,62,0.00,,,0.00,WUHU216HW,2013-03-05 11:47:00,
2013-03-05 06:52:00,30.8,19.3,30.06,NE,45,0.2,0.4,62,0.00,,,0.00,WUHU216HW,2013-03-05 11:52:00,
2013-03-05 06:57:00,31.0,19.4,30.06,NE,45,0.0,0.4,62,0.00,,,0.00,WUHU216HW,2013-03-05 11:57:00,
2013-03-05 07:02:00,31.3,19.8,30.06,NE,45,0.0,0.0,62,0.00,,,0.00,WUHU216HW,2013-03-05 12:02:00,
2013-03-05 07:07:00,31.7,20.2,30.06,NE,45,0.0,0.0,62,0.00,,,0.00,WUHU216HW,2013-03-05 12:07:00,
2013-03-05 07:13:00,32.0,20.5,30.05,NW,315,0.0,0.2,62,0.00,,,0.00,WUHU216HW,2013-03-05 12:13:00,
2013-03-05 07:18:00,32.8,21.2,30.05,SE,135,0.0,1.1,62,0.00,,,0.00,WUHU216HW,2013-03-05 12:18:00,
2013-03-05 07:23:00,33.5,21.8,30.06,SE,135,0.0,1.1,62,0.00,,,0.00,WUHU216HW,2013-03-05 12:23:00,
2013-03-05 07:28:00,34.2,22.1,30.06,SE,135,0.9,1.1,61,0.00,,,0.00,WUHU216HW,2013-03-05 12:28:00,
2013-03-05 07:33:00,34.9,22.5,30.06,ESE,113,0.9,1.1,60,0.00,,,0.00,WUHU216HW,2013-03-05 12:33:00,
2013-03-05 07:38:00,35.5,23.0,30.05,ESE,113,0.0,2.0,60,0.00,,,0.00,WUHU216HW,2013-03-05 12:38:00,
2013-03-05 07:43:00,35.8,23.0,30.06,SE,135,1.6,2.0,59,0.00,,,0.00,WUHU216HW,2013-03-05 12:43:00,
2013-03-05 07:48:00,36.4,23.4,30.06,SE,135,1.8,1.8,59,0.00,,,0.00,WUHU216HW,2013-03-05 12:48:00,
2013-03-05 07:53:00,36.7,22.9,30.06,SE,135,0.7,1.8,57,0.00,,,0.00,WUHU216HW,2013-03-05 12:53:00,
2013-03-05 07:58:00,36.7,22.9,30.06,NE,45,1.1,1.8,57,0.00,,,0.00,WUHU216HW,2013-03-05 12:58:00,
2013-03-05 08:03:00,37.1,22.8,30.06,SE,135,0.7,2.2,56,0.00,,,0.00,WUHU216HW,2013-03-05 13:03:00,
2013-03-05 08:08:00,37.4,22.7,30.06,ESE,113,1.1,3.4,55,0.00,,,0.00,WUHU216HW,2013-03-05 13:08:00,
2013-03-05 08:14:00,37.6,22.9,30.06,ESE,113,1.6,3.4,55,0.00,,,0.00,WUHU216HW,2013-03-05 13:14:00,
2013-03-05 08:19:00,37.8,22.6,30.06,SE,135,2.2,2.9,54,0.00,,,0.00,WUHU216HW,2013-03-05 13:19:00,
2013-03-05 08:24:00,38.2,22.9,30.06,East,90,1.1,2.2,54,0.00,,,0.00,WUHU216HW,2013-03-05 13:24:00,
2013-03-05 08:29:00,38.5,22.8,30.06,SSE,158,1.1,1.8,53,0.00,,,0.00,WUHU216HW,2013-03-05 13:29:00,
2013-03-05 08:34:00,39.2,23.9,30.06,SSW,203,0.2,1.8,54,0.00,,,0.00,WUHU216HW,2013-03-05 13:34:00,
2013-03-05 08:39:00,39.8,24.0,30.06,WSW,248,0.7,3.6,53,0.00,,,0.00,WUHU216HW,2013-03-05 13:39:00,
2013-03-05 08:44:00,40.0,23.2,30.06,SSW,203,4.0,4.0,51,0.00,,,0.00,WUHU216HW,2013-03-05 13:44:00,
2013-03-05 08:49:00,40.1,23.4,30.06,SE,135,0.9,4.0,51,0.00,,,0.00,WUHU216HW,2013-03-05 13:49:00,
2013-03-05 09:00:00,40.9,24.0,30.06,WSW,248,1.1,1.1,51,0.00,,,0.00,WUHU216HW,2013-03-05 14:00:00,
2013-03-05 09:05:00,41.2,23.9,30.06,SE,135,0.4,2.2,50,0.00,,,0.00,WUHU216HW,2013-03-05 14:05:00,
2013-03-05 09:10:00,41.8,24.5,30.06,SSW,203,1.1,2.2,50,0.00,,,0.00,WUHU216HW,2013-03-05 14:10:00,
2013-03-05 09:15:00,42.3,24.5,30.06,SW,225,1.6,2.0,49,0.00,,,0.00,WUHU216HW,2013-03-05 14:15:00,
2013-03-05 09:20:00,42.5,25.7,30.06,WNW,293,1.8,1.8,51,0.00,,,0.00,WUHU216HW,2013-03-05 14:20:00,
2013-03-05 09:25:00,42.7,24.3,30.06,East,90,1.1,2.5,48,0.00,,,0.00,WUHU216HW,2013-03-05 14:25:00,
2013-03-05 09:30:00,42.8,25.0,30.06,ENE,68,0.7,2.5,49,0.00,,,0.00,WUHU216HW,2013-03-05 14:30:00,
2013-03-05 09:35:00,43.2,24.9,30.06,SSW,203,1.8,2.5,48,0.00,,,0.00,WUHU216HW,2013-03-05 14:35:00,
2013-03-05 09:41:00,43.2,24.9,30.05,ESE,113,1.3,2.7,48,0.00,,,0.00,WUHU216HW,2013-03-05 14:41:00,
2013-03-05 09:46:00,43.2,24.3,30.05,SE,135,3.4,3.4,47,0.00,,,0.00,WUHU216HW,2013-03-05 14:46:00,
2013-03-05 09:51:00,43.0,24.7,30.05,ESE,113,1.1,3.4,48,0.00,,,0.00,WUHU216HW,2013-03-05 14:51:00,
2013-03-05 09:56:00,43.2,24.3,30.05,SE,135,1.8,2.0,47,0.00,,,0.00,WUHU216HW,2013-03-05 14:56:00,
2013-03-05 10:01:00,43.0,23.6,30.05,WSW,248,2.5,2.5,46,0.00,,,0.00,WUHU216HW,2013-03-05 15:01:00,
2013-03-05 10:06:00,43.2,24.3,30.05,SW,225,0.9,2.5,47,0.00,,,0.00,WUHU216HW,2013-03-05 15:06:00,
2013-03-05 10:11:00,43.4,24.4,30.04,West,270,2.0,2.0,47,0.00,,,0.00,WUHU216HW,2013-03-05 15:11:00,
2013-03-05 10:16:00,43.6,23.5,30.04,ESE,113,1.8,2.5,45,0.00,,,0.00,WUHU216HW,2013-03-05 15:16:00,
2013-03-05 10:24:00,43.9,23.9,30.04,ENE,68,1.1,2.5,45,0.00,,,0.00,WUHU216HW,2013-03-05 15:24:00,
2013-03-05 10:29:00,43.9,23.3,30.03,East,90,0.4,4.5,44,0.00,,,0.00,WUHU216HW,2013-03-05 15:29:00,
2013-03-05 10:34:00,44.3,24.1,30.03,ENE,68,1.8,2.2,45,0.00,,,0.00,WUHU216HW,2013-03-05 15:34:00,
2013-03-05 10:39:00,44.3,23.6,30.03,ESE,113,2.5,3.4,44,0.00,,,0.00,WUHU216HW,2013-03-05 15:39:00,
2013-03-05 10:44:00,44.5,23.8,30.03,SE,135,1.6,3.4,44,0.00,,,0.00,WUHU216HW,2013-03-05 15:44:00,
2013-03-05 10:50:00,44.6,23.4,30.03,WSW,248,1.8,2.5,43,0.00,,,0.00,WUHU216HW,2013-03-05 15:50:00,
2013-03-05 10:55:00,45.2,24.4,30.02,WSW,248,2.5,2.5,44,0.00,,,0.00,WUHU216HW,2013-03-05 15:55:00,
2013-03-05 11:00:00,45.5,23.1,30.02,ESE,113,1.6,2.5,41,0.00,,,0.00,WUHU216HW,2013-03-05 16:00:00,
2013-03-05 11:05:00,45.2,22.8,30.01,NE,45,2.0,2.0,41,0.00,,,0.00,WUHU216HW,2013-03-05 16:05:00,
2013-03-05 11:10:00,45.5,23.1,30.01,SE,135,1.6,2.2,41,0.00,,,0.00,WUHU216HW,2013-03-05 16:10:00,
2013-03-05 11:15:00,46.1,23.0,30.01,WSW,248,0.4,2.2,40,0.00,,,0.00,WUHU216HW,2013-03-05 16:15:00,
2013-03-05 11:20:00,46.6,23.6,30.01,ESE,113,0.9,2.0,40,0.00,,,0.00,WUHU216HW,2013-03-05 16:20:00,
2013-03-05 11:25:00,47.0,23.2,30.02,NNW,338,0.7,2.2,39,0.00,,,0.00,WUHU216HW,2013-03-05 16:25:00,
2013-03-05 11:30:00,47.0,23.9,30.02,SSE,158,1.1,2.2,40,0.00,,,0.00,WUHU216HW,2013-03-05 16:30:00,
2013-03-05 11:35:00,46.8,23.0,30.02,WSW,248,0.9,4.0,39,0.00,,,0.00,WUHU216HW,2013-03-05 16:35:00,
2013-03-05 11:40:00,47.2,22.7,30.02,ESE,113,1.8,4.0,38,0.00,,,0.00,WUHU216HW,2013-03-05 16:40:00,
2013-03-05 11:46:00,47.0,22.6,30.02,SW,225,1.8,1.8,38,0.00,,,0.00,WUHU216HW,2013-03-05 16:46:00,
2013-03-05 11:51:00,47.2,22.7,30.02,SSW,203,1.3,1.8,38,0.00,,,0.00,WUHU216HW,2013-03-05 16:51:00,
2013-03-05 11:56:00,47.2,22.1,30.01,SSW,203,3.1,3.6,37,0.00,,,0.00,WUHU216HW,2013-03-05 16:56:00,
2013-03-05 12:01:00,47.2,20.1,30.00,South,180,2.9,3.8,34,0.00,,,0.00,WUHU216HW,2013-03-05 17:01:00,
2013-03-05 12:06:00,47.5,21.7,30.00,ENE,68,1.8,5.1,36,0.00,,,0.00,WUHU216HW,2013-03-05 17:06:00,
2013-03-05 12:11:00,48.2,21.7,30.00,West,270,2.5,5.1,35,0.00,,,0.00,WUHU216HW,2013-03-05 17:11:00,
2013-03-05 12:16:00,47.9,20.7,30.00,NNE,23,2.9,4.0,34,0.00,,,0.00,WUHU216HW,2013-03-05 17:16:00,
2013-03-05 12:21:00,48.6,22.7,29.99,SSE,158,0.4,4.0,36,0.00,,,0.00,WUHU216HW,2013-03-05 17:21:00,
2013-03-05 12:26:00,49.1,22.4,29.99,WSW,248,1.1,3.4,35,0.00,,,0.00,WUHU216HW,2013-03-05 17:26:00,
2013-03-05 12:31:00,49.0,21.6,29.99,West,270,0.4,3.4,34,0.00,,,0.00,WUHU216HW,2013-03-05 17:31:00,
2013-03-05 12:36:00,49.0,21.6,29.99,ESE,113,0.7,2.0,34,0.00,,,0.00,WUHU216HW,2013-03-05 17:36:00,
2013-03-05 12:42:00,49.3,21.2,29.98,ESE,113,3.4,3.4,33,0.00,,,0.00,WUHU216HW,2013-03-05 17:42:00,
2013-03-05 12:47:00,49.7,20.9,29.98,WSW,248,2.2,3.4,32,0.00,,,0.00,WUHU216HW,2013-03-05 17:47:00,
2013-03-05 12:52:00,50.0,22.5,29.97,East,90,1.1,2.5,34,0.00,,,0.00,WUHU216HW,2013-03-05 17:52:00,
2013-03-05 12:57:00,50.2,22.1,29.97,East,90,1.8,2.5,33,0.00,,,0.00,WUHU216HW,2013-03-05 17:57:00,
2013-03-05 13:02:00,50.9,22.7,29.97,SSW,203,1.8,1.8,33,0.00,,,0.00,WUHU216HW,2013-03-05 18:02:00,
2013-03-05 13:07:00,51.1,19.8,29.96,West,270,2.5,2.5,29,0.00,,,0.00,WUHU216HW,2013-03-05 18:07:00,
2013-03-05 13:12:00,51.1,21.4,29.96,WNW,293,0.7,2.5,31,0.00,,,0.00,WUHU216HW,2013-03-05 18:12:00,
2013-03-05 13:17:00,51.1,22.1,29.97,NNE,23,0.0,0.7,32,0.00,,,0.00,WUHU216HW,2013-03-05 18:17:00,
2013-03-05 13:22:00,50.9,21.3,29.96,SE,135,1.1,1.6,31,0.00,,,0.00,WUHU216HW,2013-03-05 18:22:00,
2013-03-05 13:27:00,50.9,22.0,29.96,SE,135,1.6,1.8,32,0.00,,,0.00,WUHU216HW,2013-03-05 18:27:00,
2013-03-05 13:32:00,51.3,21.6,29.95,WNW,293,0.0,1.8,31,0.00,,,0.00,WUHU216HW,2013-03-05 18:32:00,
2013-03-05 13:37:00,51.7,22.6,29.95,NNE,23,1.1,4.3,32,0.00,,,0.00,WUHU216HW,2013-03-05 18:37:00,
2013-03-05 13:42:00,52.0,23.0,29.95,North,0,0.9,4.3,32,0.00,,,0.00,WUHU216HW,2013-03-05 18:42:00,
2013-03-05 13:47:00,52.0,22.2,29.95,NE,45,0.2,2.0,31,0.00,,,0.00,WUHU216HW,2013-03-05 18:47:00,
2013-03-05 13:52:00,52.0,23.0,29.94,NE,45,0.9,3.4,32,0.00,,,0.00,WUHU216HW,2013-03-05 18:52:00,
2013-03-05 13:57:00,52.4,21.9,29.94,WSW,248,1.8,3.4,30,0.00,,,0.00,WUHU216HW,2013-03-05 18:57:00,
2013-03-05 14:02:00,52.2,20.8,29.94,SW,225,0.0,1.8,29,0.00,,,0.00,WUHU216HW,2013-03-05 19:02:00,
2013-03-05 14:07:00,52.0,21.6,29.93,WSW,248,1.1,1.8,30,0.00,,,0.00,WUHU216HW,2013-03-05 19:07:00,
2013-03-05 14:13:00,51.7,20.4,29.93,SSW,203,1.6,2.5,29,0.00,,,0.00,WUHU216HW,2013-03-05 19:13:00,
2013-03-05 14:18:00,51.7,19.4,29.94,SW,225,0.7,2.5,28,0.00,,,0.00,WUHU216HW,2013-03-05 19:18:00,
2013-03-05 14:23:00,51.7,20.4,29.93,ESE,113,1.1,1.8,29,0.00,,,0.00,WUHU216HW,2013-03-05 19:23:00,
2013-03-05 14:28:00,51.7,20.4,29.93,SW,225,0.0,1.8,29,0.00,,,0.00,WUHU216HW,2013-03-05 19:28:00,
2013-03-05 14:33:00,51.7,21.2,29.93,SSW,203,0.0,2.9,30,0.00,,,0.00,WUHU216HW,2013-03-05 19:33:00,
2013-03-05 14:38:00,51.5,20.2,29.92,WSW,248,0.4,2.9,29,0.00,,,0.00,WUHU216HW,2013-03-05 19:38:00,
2013-03-05 14:43:00,51.3,18.2,29.92,NW,315,1.6,1.8,27,0.00,,,0.00,WUHU216HW,2013-03-05 19:43:00,
2013-03-05 14:48:00,51.5,20.2,29.92,West,270,1.1,1.6,29,0.00,,,0.00,WUHU216HW,2013-03-05 19:48:00,
2013-03-05 14:53:00,51.7,19.4,29.92,SSW,203,1.1,4.3,28,0.00,,,0.00,WUHU216HW,2013-03-05 19:53:00,
2013-03-05 14:58:00,51.7,19.4,29.92,WSW,248,0.4,4.3,28,0.00,,,0.00,WUHU216HW,2013-03-05 19:58:00,
2013-03-05 15:03:00,51.8,15.9,29.91,East,90,1.1,3.1,24,0.00,,,0.00,WUHU216HW,2013-03-05 20:03:00,
2013-03-05 15:08:00,51.8,18.6,29.91,WNW,293,0.4,3.1,27,0.00,,,0.00,WUHU216HW,2013-03-05 20:08:00,
2013-03-05 15:13:00,52.2,19.9,29.90,West,270,0.4,1.1,28,0.00,,,0.00,WUHU216HW,2013-03-05 20:13:00,
2013-03-05 15:18:00,52.4,20.0,29.90,SSW,203,0.9,1.6,28,0.00,,,0.00,WUHU216HW,2013-03-05 20:18:00,
2013-03-05 15:24:00,52.7,19.4,29.90,West,270,2.5,2.5,27,0.00,,,0.00,WUHU216HW,2013-03-05 20:24:00,
2013-03-05 15:29:00,53.6,21.2,29.90,West,270,0.7,2.5,28,0.00,,,0.00,WUHU216HW,2013-03-05 20:29:00,
2013-03-05 15:34:00,54.0,21.4,29.90,NNE,23,1.6,1.6,28,0.00,,,0.00,WUHU216HW,2013-03-05 20:34:00,
2013-03-05 15:39:00,54.7,20.2,29.90,West,270,0.7,1.6,26,0.00,,,0.00,WUHU216HW,2013-03-05 20:39:00,
2013-03-05 15:44:00,54.9,22.1,29.90,NE,45,2.2,2.2,28,0.00,,,0.00,WUHU216HW,2013-03-05 20:44:00,
2013-03-05 15:49:00,54.4,21.7,29.90,NNE,23,0.0,2.2,28,0.00,,,0.00,WUHU216HW,2013-03-05 20:49:00,
2013-03-05 15:54:00,54.0,20.5,29.90,NNE,23,0.2,2.0,27,0.00,,,0.00,WUHU216HW,2013-03-05 20:54:00,
2013-03-05 15:59:00,53.5,22.0,29.91,WSW,248,1.8,2.5,29,0.00,,,0.00,WUHU216HW,2013-03-05 20:59:00,
2013-03-05 16:04:00,53.1,22.6,29.90,WSW,248,2.9,2.9,30,0.00,,,0.00,WUHU216HW,2013-03-05 21:04:00,
2013-03-05 16:10:00,53.1,22.6,29.90,WSW,248,2.9,2.9,30,0.00,,,0.00,WUHU216HW,2013-03-05 21:10:00,
2013-03-05 16:31:00,50.8,23.9,29.91,SW,225,1.1,1.1,35,0.00,,,0.00,WUHU216HW,2013-03-05 21:31:00,
2013-03-05 16:36:00,50.4,24.2,29.91,NE,45,1.1,2.9,36,0.00,,,0.00,WUHU216HW,2013-03-05 21:36:00,
2013-03-05 16:41:00,50.2,24.8,29.91,WSW,248,0.4,4.7,37,0.00,,,0.00,WUHU216HW,2013-03-05 21:41:00,
2013-03-05 16:46:00,49.7,24.3,29.91,West,270,2.5,4.7,37,0.00,,,0.00,WUHU216HW,2013-03-05 21:46:00,
2013-03-05 16:51:00,49.3,23.9,29.91,WSW,248,0.2,3.6,37,0.00,,,0.00,WUHU216HW,2013-03-05 21:51:00,
2013-03-05 16:57:00,49.1,24.5,29.91,SW,225,0.0,3.6,38,0.00,,,0.00,WUHU216HW,2013-03-05 21:57:00,
2013-03-05 17:02:00,48.8,24.1,29.92,SE,135,0.4,3.6,38,0.00,,,0.00,WUHU216HW,2013-03-05 22:02:00,
2013-03-05 17:07:00,48.8,24.1,29.92,WSW,248,1.8,3.6,38,0.00,,,0.00,WUHU216HW,2013-03-05 22:07:00,
2013-03-05 17:12:00,48.6,24.0,29.92,SW,225,2.7,2.7,38,0.00,,,0.00,WUHU216HW,2013-03-05 22:12:00,
2013-03-05 17:17:00,48.2,23.7,29.92,West,270,0.7,2.7,38,0.00,,,0.00,WUHU216HW,2013-03-05 22:17:00,
2013-03-05 17:22:00,47.9,23.4,29.92,West,270,0.7,5.4,38,0.00,,,0.00,WUHU216HW,2013-03-05 22:22:00,
2013-03-05 17:27:00,47.5,23.7,29.92,West,270,2.5,5.4,39,0.00,,,0.00,WUHU216HW,2013-03-05 22:27:00,
2013-03-05 17:32:00,47.2,23.4,29.92,WSW,248,1.6,3.4,39,0.00,,,0.00,WUHU216HW,2013-03-05 22:32:00,
2013-03-05 17:37:00,46.8,23.8,29.92,SE,135,0.4,1.8,40,0.00,,,0.00,WUHU216HW,2013-03-05 22:37:00,
2013-03-05 17:42:00,46.6,23.6,29.92,WSW,248,1.1,1.8,40,0.00,,,0.00,WUHU216HW,2013-03-05 22:42:00,
2013-03-05 17:47:00,46.3,23.2,29.92,West,270,1.1,3.8,40,0.00,,,0.00,WUHU216HW,2013-03-05 22:47:00,
2013-03-05 17:52:00,45.7,23.3,29.92,SSE,158,0.7,4.0,41,0.00,,,0.00,WUHU216HW,2013-03-05 22:52:00,
2013-03-05 17:57:00,45.5,23.7,29.92,West,270,0.9,4.0,42,0.00,,,0.00,WUHU216HW,2013-03-05 22:57:00,
2013-03-05 18:02:00,45.4,23.5,29.92,NW,315,1.1,1.3,42,0.00,,,0.00,WUHU216HW,2013-03-05 23:02:00,
2013-03-05 18:07:00,45.0,23.2,29.92,ENE,68,0.7,1.3,42,0.00,,,0.00,WUHU216HW,2013-03-05 23:07:00,
2013-03-05 18:12:00,44.8,23.6,29.92,WNW,293,1.8,1.8,43,0.00,,,0.00,WUHU216HW,2013-03-05 23:12:00,
2013-03-05 18:18:00,44.6,23.4,29.92,East,90,0.9,2.7,43,0.00,,,0.00,WUHU216HW,2013-03-05 23:18:00,
2013-03-05 18:23:00,44.3,23.0,29.92,WNW,293,1.1,2.7,43,0.00,,,0.00,WUHU216HW,2013-03-05 23:23:00,
2013-03-05 18:28:00,44.3,23.0,29.92,West,270,0.4,1.6,43,0.00,,,0.00,WUHU216HW,2013-03-05 23:28:00,
2013-03-05 18:33:00,44.3,23.0,29.92,WSW,248,0.2,0.9,43,0.00,,,0.00,WUHU216HW,2013-03-05 23:33:00,
2013-03-05 18:38:00,44.1,23.5,29.92,WSW,248,2.0,2.5,44,0.00,,,0.00,WUHU216HW,2013-03-05 23:38:00,
2013-03-05 18:43:00,43.9,23.3,29.92,WSW,248,0.4,2.5,44,0.00,,,0.00,WUHU216HW,2013-03-05 23:43:00,
2013-03-05 18:48:00,43.9,23.3,29.91,West,270,1.8,1.8,44,0.00,,,0.00,WUHU216HW,2013-03-05 23:48:00,
2013-03-05 18:53:00,43.7,23.1,29.91,West,270,3.4,3.4,44,0.00,,,0.00,WUHU216HW,2013-03-05 23:53:00,
2013-03-05 18:58:00,43.6,23.0,29.91,WSW,248,1.1,3.4,44,0.00,,,0.00,WUHU216HW,2013-03-05 23:58:00,
2013-03-05 19:03:00,43.6,23.0,29.91,NNW,338,0.4,1.8,44,0.00,,,0.00,WUHU216HW,2013-03-06 00:03:00,
2013-03-05 19:08:00,43.6,22.4,29.91,NW,315,1.6,2.5,43,0.00,,,0.00,WUHU216HW,2013-03-06 00:08:00,
2013-03-05 19:13:00,43.4,22.2,29.91,SSW,203,0.4,2.5,43,0.00,,,0.00,WUHU216HW,2013-03-06 00:13:00,
2013-03-05 19:18:00,43.4,22.2,29.90,NE,45,0.4,2.9,43,0.00,,,0.00,WUHU216HW,2013-03-06 00:18:00,
2013-03-05 19:24:00,43.4,22.2,29.90,ENE,68,1.3,2.9,43,0.00,,,0.00,WUHU216HW,2013-03-06 00:24:00,
2013-03-05 19:29:00,43.2,22.7,29.90,WSW,248,1.8,2.2,44,0.00,,,0.00,WUHU216HW,2013-03-06 00:29:00,
2013-03-05 19:34:00,43.2,22.7,29.90,West,270,2.9,3.4,44,0.00,,,0.00,WUHU216HW,2013-03-06 00:34:00,
2013-03-05 19:39:00,43.0,22.5,29.90,WSW,248,0.2,3.4,44,0.00,,,0.00,WUHU216HW,2013-03-06 00:39:00,
2013-03-05 19:44:00,43.0,22.5,29.90,WSW,248,1.1,2.0,44,0.00,,,0.00,WUHU216HW,2013-03-06 00:44:00,
2013-03-05 19:49:00,42.8,22.3,29.90,WNW,293,1.3,2.5,44,0.00,,,0.00,WUHU216HW,2013-03-06 00:49:00,
2013-03-05 19:54:00,42.8,22.3,29.90,SW,225,0.0,2.5,44,0.00,,,0.00,WUHU216HW,2013-03-06 00:54:00,
2013-03-05 19:59:00,42.8,22.3,29.89,WSW,248,2.0,2.0,44,0.00,,,0.00,WUHU216HW,2013-03-06 00:59:00,
2013-03-05 20:04:00,42.8,22.3,29.90,SW,225,1.1,2.0,44,0.00,,,0.00,WUHU216HW,2013-03-06 01:04:00,
2013-03-05 20:09:00,42.8,22.3,29.89,WSW,248,1.1,1.1,44,0.00,,,0.00,WUHU216HW,2013-03-06 01:09:00,
2013-03-05 20:14:00,42.7,22.1,29.89,NNW,338,0.4,1.1,44,0.00,,,0.00,WUHU216HW,2013-03-06 01:14:00,
2013-03-05 20:19:00,42.7,22.7,29.89,NNW,338,0.2,1.1,45,0.00,,,0.00,WUHU216HW,2013-03-06 01:19:00,
2013-03-05 20:24:00,42.7,22.7,29.89,West,270,0.0,1.3,45,0.00,,,0.00,WUHU216HW,2013-03-06 01:24:00,
2013-03-05 20:29:00,42.7,22.7,29.89,West,270,0.4,1.3,45,0.00,,,0.00,WUHU216HW,2013-03-06 01:29:00,
2013-03-05 20:34:00,42.7,22.7,29.89,West,270,1.3,1.6,45,0.00,,,0.00,WUHU216HW,2013-03-06 01:34:00,
2013-03-05 20:40:00,42.7,22.7,29.88,SE,135,0.0,1.6,45,0.00,,,0.00,WUHU216HW,2013-03-06 01:40:00,
2013-03-05 20:45:00,42.7,22.7,29.88,West,270,0.4,1.1,45,0.00,,,0.00,WUHU216HW,2013-03-06 01:45:00,
2013-03-05 20:50:00,42.7,22.7,29.87,West,270,0.7,1.6,45,0.00,,,0.00,WUHU216HW,2013-03-06 01:50:00,
2013-03-05 20:55:00,42.7,22.7,29.87,WSW,248,0.0,1.6,45,0.00,,,0.00,WUHU216HW,2013-03-06 01:55:00,
2013-03-05 21:00:00,42.7,22.7,29.86,WNW,293,0.9,0.9,45,0.00,,,0.00,WUHU216HW,2013-03-06 02:00:00,
2013-03-05 21:05:00,42.5,22.5,29.86,WSW,248,0.0,0.9,45,0.00,,,0.00,WUHU216HW,2013-03-06 02:05:00,
2013-03-05 21:07:00,42.5,22.5,29.86,West,270,1.1,1.1,45,0.00,,,0.00,WUHU216HW,2013-03-06 02:07:00,
2013-03-05 21:10:00,42.5,22.5,29.86,West,270,1.1,1.1,45,0.00,,,0.00,WUHU216HW,2013-03-06 02:10:00,
2013-03-05 21:15:00,42.5,22.5,29.86,West,270,1.1,1.1,45,0.00,,,0.00,WUHU216HW,2013-03-06 02:15:00,
2013-03-05 21:37:00,42.5,22.0,29.84,SSW,203,1.8,1.8,44,0.00,,,0.00,WUHU216HW,2013-03-06 02:37:00,
2013-03-05 21:42:00,42.5,22.5,29.84,WNW,293,2.0,2.0,45,0.00,,,0.00,WUHU216HW,2013-03-06 02:42:00,
2013-03-05 21:47:00,42.5,22.5,29.84,West,270,1.1,2.0,45,0.00,,,0.00,WUHU216HW,2013-03-06 02:47:00,
2013-03-05 21:52:00,42.3,23.4,29.84,SSW,203,2.0,3.1,47,0.00,,,0.00,WUHU216HW,2013-03-06 02:52:00,
2013-03-05 21:57:00,42.1,24.3,29.84,West,270,2.5,3.1,49,0.00,,,0.00,WUHU216HW,2013-03-06 02:57:00,
2013-03-05 22:02:00,41.9,24.7,29.84,ENE,68,1.1,4.7,50,0.00,,,0.00,WUHU216HW,2013-03-06 03:02:00,
2013-03-05 22:07:00,41.8,24.9,29.84,WSW,248,1.8,4.7,51,0.00,,,0.00,WUHU216HW,2013-03-06 03:07:00,
2013-03-05 22:12:00,41.6,26.6,29.84,West,270,1.1,5.1,55,0.00,,,0.00,WUHU216HW,2013-03-06 03:12:00,
2013-03-05 22:17:00,41.4,26.8,29.84,West,270,0.9,5.1,56,0.00,,,0.00,WUHU216HW,2013-03-06 03:17:00,
2013-03-05 22:22:00,41.4,27.3,29.84,ENE,68,0.2,0.2,57,0.00,,,0.00,WUHU216HW,2013-03-06 03:22:00,
2013-03-05 22:23:00,41.4,27.3,29.84,ENE,68,0.2,3.8,57,0.00,,,0.00,WUHU216HW,2013-03-06 03:23:00,
2013-03-05 22:28:00,41.4,27.3,29.84,ENE,68,0.2,2.5,57,0.00,,,0.00,WUHU216HW,2013-03-06 03:28:00,
2013-03-05 22:52:00,40.7,29.1,29.82,West,270,2.2,2.2,63,0.00,,,0.00,WUHU216HW,2013-03-06 03:52:00,
2013-03-05 22:57:00,40.7,29.1,29.82,WSW,248,0.2,2.2,63,0.00,,,0.00,WUHU216HW,2013-03-06 03:57:00,
2013-03-05 23:02:00,40.5,28.9,29.82,West,270,0.9,2.0,63,0.00,,,0.00,WUHU216HW,2013-03-06 04:02:00,
2013-03-05 23:07:00,40.5,29.6,29.81,West,270,0.7,1.6,65,0.00,,,0.00,WUHU216HW,2013-03-06 04:07:00,
2013-03-05 23:12:00,40.3,30.2,29.82,West,270,3.4,3.4,67,0.00,,,0.00,WUHU216HW,2013-03-06 04:12:00,
2013-03-05 23:17:00,40.0,29.4,29.81,WSW,248,0.2,3.4,66,0.00,,,0.00,WUHU216HW,2013-03-06 04:17:00,
2013-03-05 23:22:00,39.6,28.7,29.81,West,270,1.1,3.1,65,0.00,,,0.00,WUHU216HW,2013-03-06 04:22:00,
2013-03-05 23:27:00,39.2,29.1,29.81,SSW,203,0.4,3.1,67,0.00,,,0.00,WUHU216HW,2013-03-06 04:27:00,
2013-03-05 23:32:00,39.2,28.4,29.81,SW,225,0.4,3.1,65,0.00,,,0.00,WUHU216HW,2013-03-06 04:32:00,
2013-03-05 23:38:00,39.1,29.7,29.81,West,270,4.7,4.7,69,0.00,,,0.00,WUHU216HW,2013-03-06 04:38:00,
2013-03-05 23:43:00,38.9,28.8,29.81,SW,225,1.8,4.7,67,0.00,,,0.00,WUHU216HW,2013-03-06 04:43:00,
2013-03-05 23:48:00,38.9,29.5,29.80,WSW,248,2.0,3.4,69,0.00,,,0.00,WUHU216HW,2013-03-06 04:48:00,
2013-03-05 23:53:00,38.9,30.2,29.80,WSW,248,1.1,3.4,71,0.00,,,0.00,WUHU216HW,2013-03-06 04:53:00,
2013-03-05 23:58:00,38.7,29.8,29.79,West,270,0.9,3.4,70,0.00,,,0.00,WUHU216HW,2013-03-06 04:58:00,